Temperature
20 20 19 19 19 19 19 19 18 18 18 18 18 17 17 17 17 17 17 17 17 16 16 16 16 16 16 16 16 16 16 16 16 16 16 16 16 16 16 16 16 16 15
20 20 19 19 19 19 19 19 18 18 18 18 17 17 17 17 17 17 17 17 17 16 16 16 16 16 16 16 16 16 16 16 16 16 16 16 16 16 16 16 16 15 15
20 19 19 18 18 18 18 18 18 18 18 17 17 17 17 17 17 17 17 17 17 17 16 16 16 16 16 16 16 16 16 16 16 16 16 16 16 16 16 16 15 15 15
19 19 18 18 18 18 18 18 18 17 17 17 17 17 17 17 17 17 17 17 17 17 16 16 16 16 16 16 16 16 16 16 16 16 16 16 15 15 15 15 15 15 15
19 18 18 18 18 18 17 17 17 17 17 17 17 17 16 16 16 17 17 17 17 17 16 16 16 16 16 16 16 16 16 16 16 16 16 16 16 15 15 15 15 15 15
18 18 18 17 17 17 17 17 17 17 17 17 17 17 16 16 16 16 17 17 16 16 16 16 16 16 16 16 16 16 16 16 16 16 16 16 16 16 15 15 15 15 15
17 17 17 17 17 17 17 17 17 17 17 17 16 16 16 16 16 16 16 16 16 16 16 16 16 16 16 16 16 16 16 16 16 16 16 16 16 16 15 15 15 15 15
17 16 16 16 17 17 17 16 16 16 16 16 16 16 16 16 16 16 16 16 16 16 16 16 16 16 16 16 16 16 16 16 16 16 16 16 16 16 16 15 15 15 15
16 16 16 16 16 16 16 16 16 16 16 16 16 16 16 16 16 16 16 16 16 16 16 16 16 16 16 16 16 16 16 16 16 16 16 16 16 16 15 15 15 15 15
15 15 15 16 16 16 16 16 16 16 16 16 16 16 16 16 16 16 16 16 16 16 16 16 16 16 16 16 15 16 16 16 16 16 16 16 15 15 15 15 15 15 15
14 15 15 15 15 15 15 15 15 16 16 15 15 15 15 15 15 15 15 15 15 16 16 16 16 16 16 15 15 15 15 15 15 15 15 15 15 15 15 15 15 15 15
14 14 14 15 15 15 15 15 15 15 15 15 15 15 15 15 15 15 15 15 15 15 16 16 16 16 15 15 15 15 15 15 15 15 15 15 15 15 15 15 15 15 15
14 14 14 14 14 15 15 15 15 15 15 15 15 15 15 15 15 15 15 15 15 15 15 15 15 15 15 15 15 15 15 15 15 15 15 15 15 15 15 15 15 15 15
13 13 13 13 14 14 14 14 14 14 15 15 15 15 15 15 15 15 15 15 15 15 15 15 15 15 15 15 15 15 15 15 15 15 15 15 15 15 15 15 15 15 14
13 13 13 13 14 14 14 14 14 14 14 15 15 15 15 15 15 15 14 14 15 15 15 15 15 15 15 15 15 15 15 15 15 15 15 15 15 15 15 15 15 14 14
12 13 13 13 13 13 13 14 14 14 14 14 14 14 14 14 14 14 14 14 14 15 15 15 15 15 15 15 15 15 15 15 15 15 15 15 15 15 15 14 14 14 14
12 12 13 13 13 13 13 13 14 14 14 14 14 14 14 14 14 14 14 14 14 14 14 15 14 15 14 14 14 14 14 14 14 15 15 15 15 15 14 14 14 14 14
12 12 12 12 13 13 13 13 13 14 14 14 14 14 14 14 14 14 14 14 14 14 14 14 14 14 14 14 14 14 14 14 14 14 14 14 14 14 14 14 14 14 14
12 12 12 12 12 13 13 13 13 13 13 13 13 14 14 14 14 14 14 14 14 14 14 14 14 14 14 14 14 14 14 14 14 14 14 14 14 14 14 14 14 14 14
12 12 12 12 12 12 12 12 13 13 13 13 13 13 14 14 14 14 14 14 14 14 14 14 14 14 14 14 14 14 14 14 14 14 14 14 14 14 14 14 14 14 13
11 11 11 12 12 12 12 12 12 12 13 13 13 13 13 13 14 13 13 13 14 14 14 14 14 13 13 13 13 13 13 13 13 14 14 14 14 14 14 14 13 13 13
11 11 11 12 12 12 12 12 12 12 12 13 13 13 13 13 13 13 13 13 13 13 13 13 13 13 13 13 13 12 12 13 13 13 13 13 13 13 13 13 13 13 13
11 11 11 11 11 11 11 12 12 11 12 12 12 12 12 13 13 13 13 13 13 13 13 13 13 13 13 13 13 12 12 12 12 13 13 13 13 13 13 13 13 13 13
10 10 10 11 11 11 11 11 11 11 12 12 12 12 12 12 12 12 12 13 13 13 13 13 13 13 13 12 12 12 13 12 12 12 12 12 12 12 12 12 12 12 12
10 10 10 10 10 10 11 11 11 11 11 11 12 12 12 12 12 12 12 12 12 12 13 13 12 12 12 12 12 12 12 12 12 12 11 12 12 12 12 12 12 12 12
9 9 9 10 10 10 10 10 10 10 11 11 11 11 11 11 11 12 12 12 12 12 12 12 12 12 12 12 12 12 12 12 12 12 12 12 11 11 11 11 11 11 11
Wind_Speed
8 14 23 23 23 23 23 23 22 22 21 21 21 21 21 21 21 21 21 20 19 18 18 18 18 19 19 20 20 19 19 18 18 18 17 17 17 17 17 17 17 16 18
11 18 24 24 24 23 23 23 22 22 21 21 21 21 20 20 21 21 21 20 19 18 18 18 18 19 19 19 19 19 18 18 18 17 17 17 17 17 17 16 16 15 17
13 18 22 23 23 23 23 22 22 22 21 21 21 21 20 20 20 20 20 19 19 19 18 19 18 19 19 18 18 18 17 17 17 16 15 14 15 16 16 16 16 17 17
12 16 19 22 23 23 23 23 22 22 21 21 20 20 20 20 20 20 20 19 19 19 19 19 18 18 18 17 17 16 16 16 15 14 12 12 13 15 16 16 16 16 16
9 12 16 21 23 23 22 23 23 22 22 21 20 20 20 20 21 20 20 19 19 19 19 19 18 18 17 16 15 14 14 14 14 13 12 12 12 14 15 15 15 15 15
7 9 14 19 22 22 22 23 23 23 22 21 20 20 20 21 20 20 20 19 19 19 19 19 18 17 16 14 13 13 14 15 14 13 12 11 11 13 14 14 13 13 14
5 6 12 17 19 21 22 22 23 23 22 22 21 21 20 21 20 20 20 20 20 19 19 18 18 16 14 13 12 13 14 15 13 12 10 10 11 12 13 12 12 12 12
6 5 8 14 16 19 20 21 22 22 22 22 21 21 20 21 20 20 21 20 20 20 19 18 17 16 13 12 12 12 13 14 12 11 9 9 11 11 12 11 11 11 11
5 5 5 9 12 15 17 19 20 22 22 22 21 21 21 21 21 21 21 21 20 19 19 17 16 15 13 11 10 11 12 13 12 10 9 8 10 11 11 10 10 9 9
4 4 4 6 8 9 12 16 18 20 21 21 21 21 20 20 21 21 21 21 20 19 18 17 16 14 12 10 9 11 13 12 11 9 9 9 10 10 10 9 8 8 8
3 4 3 5 6 7 9 13 15 18 19 20 19 20 20 17 18 19 19 21 21 20 18 17 15 14 12 9 9 10 10 9 10 9 9 10 10 9 9 8 7 7 6
5 6 4 6 7 7 8 9 10 13 15 15 15 17 16 15 16 17 19 21 20 19 18 17 15 13 11 8 7 8 8 10 10 9 10 11 10 10 9 8 7 7 6
6 6 6 6 7 6 5 7 6 7 10 13 15 15 15 13 13 14 14 15 17 17 14 14 12 10 9 8 6 7 8 9 9 9 11 12 11 10 10 9 8 7 6
7 7 6 6 7 7 6 6 6 6 7 8 12 15 13 9 9 10 10 12 13 12 11 11 9 9 8 8 7 6 7 8 10 10 11 13 12 11 10 9 9 8 7
8 8 7 7 7 7 6 6 7 7 7 9 12 15 15 9 10 9 9 11 11 12 11 9 8 7 7 7 7 7 7 9 11 11 11 13 13 12 11 10 10 9 8
9 9 7 7 7 8 6 6 7 7 8 9 11 13 16 13 10 10 9 9 10 12 12 10 9 7 5 5 5 7 8 9 11 12 12 13 13 13 12 11 10 9 9
8 8 8 8 7 8 8 7 7 6 7 7 9 14 15 14 13 10 9 8 9 12 12 9 8 6 5 4 5 5 6 8 9 11 12 12 12 13 13 12 11 10 10
7 8 8 8 8 8 7 6 5 6 7 6 8 11 14 15 15 11 9 9 11 11 9 7 6 5 5 5 4 4 4 6 8 9 10 11 11 11 11 12 11 10 10
7 7 8 7 8 8 7 6 5 5 6 6 6 8 11 14 15 11 9 8 11 8 7 8 6 5 5 5 5 4 4 4 5 7 7 10 11 11 11 11 11 11 10
5 6 7 7 7 7 6 4 5 5 5 6 6 7 11 12 13 11 9 10 10 8 7 7 7 5 5 5 4 3 3 4 4 5 6 7 9 11 11 10 9 9 10
3 5 7 7 6 6 6 6 6 6 6 6 5 8 11 12 12 10 9 10 10 9 10 9 5 6 4 3 2 1 2 2 4 5 4 5 6 9 10 10 9 8 7
3 5 6 6 5 6 7 6 5 5 5 5 5 6 10 11 11 10 10 10 10 9 9 9 6 5 4 5 4 3 1 2 3 4 4 5 5 5 6 8 9 8 8
1 3 4 5 5 5 5 5 4 3 3 3 5 6 8 9 10 9 10 10 10 9 9 9 9 8 6 5 5 5 4 4 2 2 3 4 5 4 4 5 7 8 9
0 2 3 5 5 5 4 5 6 5 5 4 4 5 7 8 8 8 9 10 10 9 9 10 9 7 8 7 4 4 3 3 3 2 2 3 4 5 5 5 6 7 8
2 2 2 3 3 4 4 5 5 4 3 3 3 4 6 7 7 7 7 8 9 8 9 9 8 8 7 7 5 3 3 3 3 3 4 3 3 4 5 5 5 6 7
4 3 2 2 2 3 4 4 5 5 4 4 3 3 5 5 5 7 7 7 7 7 8 9 9 9 8 7 5 4 4 4 4 4 4 4 4 4 4 4 5 5 6
Wind_Direction
171 167 171 167 163 159 154 150 148 145 143 140 137 135 133 132 132 132 132 131 130 127 122 119 116 112 110 110 109 106 102 98 95 92 90 90 91 90 87 84 81 79 81
162 166 169 168 164 161 157 153 150 148 146 145 143 140 138 137 136 135 135 133 132 129 125 122 120 116 115 113 111 108 104 100 98 95 91 91 92 92 90 88 87 85 83
153 165 168 168 165 162 159 156 153 152 151 150 148 146 144 142 140 138 138 137 135 131 128 126 124 120 118 116 114 111 108 105 103 100 96 95 95 95 93 91 89 87 84
150 161 168 169 166 164 162 159 157 156 155 154 154 152 150 147 145 143 142 139 136 133 131 129 125 123 122 120 117 113 110 109 105 101 95 95 98 98 95 93 90 88 86
144 157 167 170 168 166 164 162 161 160 159 159 158 157 154 151 149 147 145 142 139 136 134 131 128 127 126 122 116 112 110 110 108 102 96 95 98 100 97 95 93 91 89
142 153 165 170 171 169 167 165 164 163 163 163 161 160 158 155 153 150 146 143 141 138 137 135 133 132 129 123 116 113 112 112 109 105 101 101 102 104 102 100 97 95 93
134 152 162 167 171 171 170 169 168 167 167 166 164 163 160 158 156 152 149 146 144 142 141 139 138 136 133 126 118 114 116 120 116 112 109 111 112 111 108 105 102 99 96
134 148 163 168 168 171 173 173 172 171 170 169 168 167 164 161 158 155 152 150 149 147 145 144 143 142 139 131 124 119 121 125 124 121 119 121 122 118 114 111 108 106 103
125 135 153 165 165 170 171 175 175 175 173 172 171 169 166 163 160 158 156 154 153 151 149 148 148 148 146 138 130 124 127 132 130 131 129 131 131 127 122 119 116 113 109
131 135 154 160 162 166 171 173 174 174 174 173 171 167 165 163 161 159 158 157 155 153 152 152 153 154 152 145 135 129 132 135 136 139 140 144 142 137 133 130 127 123 119
161 160 168 162 160 163 169 173 173 172 172 171 170 165 162 163 161 160 160 159 157 156 156 157 159 160 157 152 143 136 137 144 147 148 154 156 153 150 146 143 141 139 134
200 181 178 172 166 163 172 168 171 175 172 169 169 167 165 163 162 162 163 160 158 158 160 162 164 164 162 160 154 147 150 158 161 164 169 168 165 163 161 160 159 157 156
205 196 183 184 175 172 172 170 171 173 173 170 168 167 165 161 160 159 162 161 160 161 162 164 165 172 172 172 169 164 167 171 175 177 181 179 178 177 177 178 178 178 178
207 199 190 190 185 179 175 178 176 176 177 176 174 170 165 163 164 163 166 165 165 167 166 168 172 180 184 187 185 182 183 184 184 183 187 188 188 189 189 189 191 192 193
212 200 195 190 188 180 179 184 182 181 182 181 177 175 171 171 172 170 170 170 171 171 172 173 178 185 194 201 202 198 195 190 187 186 191 194 196 198 200 201 202 203 207
211 198 189 190 191 179 181 189 181 184 182 182 181 179 175 173 174 173 172 174 176 178 179 181 185 188 197 198 203 201 192 186 188 191 195 199 202 202 205 208 212 215 220
207 195 188 189 190 184 183 189 181 179 176 183 184 181 178 176 175 174 176 179 182 182 181 182 187 187 190 195 203 197 188 190 191 195 198 200 203 207 210 214 219 222 225
203 193 191 193 191 185 183 181 180 180 177 180 184 181 178 177 177 174 177 183 183 180 179 180 182 184 190 192 197 199 193 193 197 200 201 203 203 206 212 216 219 222 225
202 193 185 184 187 184 180 178 179 181 184 178 182 185 180 178 179 175 179 180 179 178 181 184 185 183 187 194 199 202 202 201 201 199 202 205 205 205 208 213 217 221 224
201 193 181 176 182 182 177 176 180 181 188 182 186 194 184 178 179 176 177 176 175 177 182 183 181 184 185 186 189 204 219 215 207 207 208 205 206 207 209 210 211 218 224
193 187 176 171 184 181 176 176 182 187 189 185 192 199 191 180 178 179 180 179 179 184 188 182 180 181 188 169 148 210 293 252 231 225 210 204 205 205 204 205 204 204 211
196 187 170 172 182 189 181 173 176 178 188 182 185 197 193 181 179 183 183 183 183 183 185 186 176 180 188 174 164 161 235 289 262 234 213 208 213 201 203 205 201 201 203
188 177 176 181 184 183 171 159 167 169 170 175 182 192 194 181 178 183 186 184 186 184 189 191 186 186 193 196 184 176 180 218 248 260 226 216 209 212 213 198 201 202 201
125 139 151 163 166 168 166 164 173 186 180 188 186 190 191 182 180 182 185 187 189 189 191 193 191 192 187 196 201 208 203 182 191 234 251 226 216 218 218 208 197 199 196
78 120 133 141 148 157 158 166 177 184 167 158 160 181 190 182 182 183 182 186 191 193 193 193 194 194 195 199 200 196 204 213 210 210 240 235 233 231 223 212 199 193 191
53 73 89 115 123 143 153 160 171 168 160 155 166 196 191 185 183 186 184 186 192 196 197 196 196 198 201 203 208 204 195 195 204 206 231 237 240 240 230 220 209 194 187
Height
1492 1494 1496 1499 1502 1504 1506 1508 1511 1513 1516 1518 1520 1522 1524 1526 1528 1530 1531 1533 1534 1536 1537 1538 1539 1540 1541 1542 1543 1544 1545 1545 1546 1546 1547 1547 1547 1547 1547 1547 1547 1547 1547
1491 1493 1496 1498 1501 1503 1506 1508 1510 1513 1516 1518 1520 1522 1524 1526 1528 1530 1532 1533 1535 1536 1538 1539 1540 1541 1543 1544 1545 1545 1546 1547 1547 1548 1548 1549 1549 1549 1549 1549 1549 1549 1549
1490 1493 1495 1498 1500 1503 1505 1508 1510 1513 1515 1518 1520 1523 1525 1527 1529 1531 1532 1534 1535 1537 1539 1540 1541 1543 1544 1545 1546 1547 1548 1549 1549 1550 1550 1550 1551 1551 1551 1551 1551 1551 1551
1490 1492 1494 1497 1500 1502 1505 1507 1510 1512 1515 1518 1520 1523 1525 1527 1529 1531 1533 1534 1536 1538 1539 1541 1542 1544 1545 1546 1547 1548 1549 1550 1551 1551 1552 1552 1552 1553 1553 1553 1553 1553 1552
1490 1492 1494 1497 1499 1502 1504 1507 1509 1512 1514 1517 1520 1522 1525 1527 1529 1531 1533 1534 1536 1538 1540 1542 1543 1545 1546 1548 1549 1550 1551 1551 1552 1553 1553 1553 1554 1554 1554 1554 1554 1554 1554
1490 1491 1493 1496 1499 1501 1504 1506 1508 1511 1514 1516 1519 1522 1524 1527 1529 1531 1533 1535 1537 1539 1540 1542 1544 1546 1547 1549 1550 1551 1552 1553 1553 1554 1555 1555 1555 1555 1556 1556 1556 1556 1555
1489 1491 1493 1495 1498 1500 1503 1505 1508 1510 1513 1516 1519 1521 1524 1526 1528 1531 1533 1535 1537 1539 1541 1543 1545 1547 1548 1549 1551 1552 1553 1554 1555 1555 1556 1556 1556 1557 1557 1557 1557 1557 1557
1489 1490 1492 1494 1496 1499 1502 1504 1506 1509 1512 1515 1518 1520 1523 1525 1528 1530 1532 1535 1537 1539 1541 1543 1545 1547 1549 1550 1551 1552 1554 1555 1556 1556 1557 1557 1558 1558 1558 1558 1558 1558 1558
1488 1489 1491 1493 1495 1498 1500 1503 1505 1508 1511 1514 1517 1519 1522 1525 1527 1530 1532 1534 1537 1539 1541 1543 1546 1547 1549 1551 1552 1553 1554 1556 1556 1557 1558 1558 1558 1559 1559 1559 1559 1559 1559
1486 1487 1489 1491 1493 1495 1498 1501 1504 1507 1509 1512 1515 1518 1521 1524 1527 1529 1532 1534 1537 1539 1541 1543 1546 1548 1549 1551 1552 1554 1555 1556 1557 1558 1558 1559 1559 1559 1559 1559 1559 1559 1559
1484 1485 1486 1489 1491 1493 1496 1499 1502 1505 1508 1511 1514 1517 1520 1523 1525 1528 1531 1533 1536 1539 1541 1543 1546 1547 1549 1551 1553 1554 1555 1556 1557 1558 1558 1559 1559 1560 1560 1560 1560 1560 1559
1480 1482 1484 1486 1488 1491 1493 1496 1500 1503 1506 1509 1512 1515 1518 1521 1524 1527 1530 1533 1535 1538 1540 1543 1545 1547 1549 1551 1552 1554 1555 1556 1557 1558 1558 1559 1559 1560 1560 1560 1560 1560 1559
1477 1478 1480 1483 1486 1488 1490 1493 1496 1500 1503 1506 1509 1512 1515 1519 1522 1525 1528 1531 1534 1536 1539 1542 1544 1546 1548 1550 1551 1553 1554 1555 1556 1557 1558 1558 1559 1559 1559 1559 1559 1559 1559
1473 1474 1476 1479 1482 1485 1487 1490 1493 1496 1499 1503 1507 1510 1512 1516 1519 1522 1525 1528 1531 1534 1537 1540 1542 1545 1547 1549 1551 1552 1553 1554 1555 1556 1557 1558 1558 1558 1558 1558 1558 1558 1558
1469 1471 1473 1475 1478 1481 1484 1487 1490 1493 1496 1500 1503 1506 1509 1512 1516 1519 1523 1526 1529 1532 1535 1538 1541 1543 1545 1547 1549 1551 1552 1553 1554 1555 1556 1556 1557 1557 1557 1557 1557 1557 1556
1464 1466 1469 1471 1474 1478 1481 1483 1486 1489 1493 1496 1499 1503 1506 1510 1513 1516 1520 1523 1526 1530 1533 1536 1539 1541 1544 1546 1547 1549 1550 1551 1552 1553 1554 1555 1555 1555 1555 1555 1555 1555 1555
1459 1462 1465 1467 1470 1473 1477 1479 1482 1485 1488 1492 1495 1499 1503 1506 1509 1513 1516 1520 1524 1527 1531 1534 1536 1539 1541 1543 1545 1547 1548 1549 1550 1551 1552 1552 1553 1553 1553 1553 1553 1553 1553
1455 1458 1460 1463 1465 1468 1471 1475 1478 1481 1485 1488 1491 1495 1499 1502 1506 1509 1513 1517 1521 1524 1527 1530 1533 1536 1538 1540 1542 1544 1545 1546 1547 1548 1549 1549 1550 1550 1550 1550 1550 1550 1550
1450 1453 1454 1458 1461 1464 1467 1471 1474 1477 1480 1484 1487 1491 1495 1498 1502 1505 1509 1513 1517 1520 1523 1527 1529 1532 1534 1537 1539 1541 1542 1543 1544 1545 1545 1546 1546 1547 1547 1547 1547 1547 1547
1445 1447 1450 1453 1456 1460 1463 1467 1470 1473 1476 1480 1483 1487 1490 1494 1497 1501 1504 1508 1512 1516 1519 1523 1525 1529 1531 1534 1536 1537 1538 1539 1540 1541 1541 1542 1543 1543 1543 1543 1544 1543 1543
1440 1442 1445 1449 1453 1456 1459 1462 1465 1468 1471 1475 1478 1482 1486 1489 1493 1496 1500 1504 1507 1511 1514 1518 1521 1524 1527 1530 1532 1533 1534 1535 1536 1536 1537 1538 1538 1539 1539 1539 1539 1539 1539
1438 1440 1442 1445 1448 1452 1454 1457 1461 1464 1467 1470 1474 1478 1481 1484 1488 1492 1495 1499 1502 1506 1510 1513 1516 1519 1522 1525 1527 1528 1529 1531 1531 1532 1532 1533 1534 1534 1535 1534 1534 1534 1534
1434 1436 1438 1441 1444 1447 1450 1454 1457 1460 1463 1466 1470 1472 1476 1479 1483 1487 1491 1494 1498 1501 1504 1508 1511 1514 1516 1519 1522 1523 1524 1524 1525 1526 1527 1528 1529 1529 1530 1530 1529 1529 1529
1433 1435 1437 1438 1441 1444 1447 1449 1452 1454 1457 1460 1464 1468 1472 1475 1479 1482 1486 1489 1492 1496 1499 1502 1506 1509 1511 1513 1516 1518 1519 1520 1520 1520 1521 1523 1523 1524 1524 1524 1524 1524 1524
1432 1434 1435 1437 1438 1441 1443 1446 1448 1451 1454 1457 1460 1464 1467 1470 1474 1478 1481 1484 1487 1490 1494 1497 1500 1503 1505 1507 1509 1511 1513 1514 1515 1515 1514 1516 1517 1517 1518 1518 1518 1518 1518
1431 1431 1431 1433 1436 1438 1440 1443 1446 1448 1451 1454 1456 1459 1463 1466 1470 1473 1476 1479 1482 1485 1488 1491 1494 1496 1499 1501 1503 1505 1506 1507 1508 1509 1509 1509 1510 1511 1512 1512 1512 1512 1512